#timestamp,LO_Frequency,Hit,StdDev 
1651042815.2,286046999.2,N
1651042835.1,286046997.0,N
1651042836.0,286046997.0,N
1651042855.8,286046999.5,N
1651042875.7,286046999.6,N
1651042895.5,286046999.3,N
1651042915.3,286046997.0,N
1651042935.2,286046997.3,N
1651042955.0,286046998.3,N
1651042955.9,286046998.3,N
1651042975.8,286046996.9,N
1651042995.6,286046999.4,N
1651043015.4,286046998.4,N
1651043035.3,286046999.4,N
1651043055.1,286046997.0,N
1651043075.9,286047001.0,N
1651043095.7,286047000.3,N
1651043115.5,286047001.1,N
1651043135.4,286047000.3,N
1651043155.2,286047000.9,N
1651043175.0,286046998.1,N
1651043175.9,286046998.1,N
1651043195.8,286046996.5,N
1651043215.6,286046996.7,N
1651043235.4,286046996.8,N
1651043255.3,286046994.9,Y
1651043275.1,286046999.6,P
1651043295.9,286046996.8,P
1651043315.7,286046999.6,N
1651043335.5,286046999.3,N
1651043355.4,286046997.4,N
1651043375.2,286046996.7,Y
1651043395.1,286047001.0,P
1651043396.0,286047001.0,N
1651043415.8,286047000.9,N
1651043435.6,286047002.8,N
1651043455.5,286047002.3,N
1651043475.3,286047003.5,N
1651043495.2,286047003.5,N
1651043515.9,286047003.9,N
1651043535.7,286047001.8,N
1651043555.6,286047001.9,N
1651043575.4,286047003.6,N
1651043595.2,286047004.0,N
1651043615.1,286047002.1,N
1651043616.0,286047002.1,N
1651043635.8,286047002.4,N
1651043655.7,286047000.7,N
1651043675.5,286047000.0,N
1651043695.3,286046999.7,N
1651043715.2,286047002.1,N
1651043765.9,286047003.8,E
1651043775.9,286047000.2,N
1651043795.7,286046999.1,P
1651043815.5,286046997.7,P
1651043835.4,286046997.2,N
1651043855.2,286046997.7,N
1651043875.0,286047000.0,N
1651043875.9,286047000.0,N
1651043895.8,286046998.2,N
1651043915.6,286047000.5,N
1651043935.5,286047002.5,N
1651043955.3,286047004.4,N
1651043975.1,286047003.1,N
1651043995.9,286047001.7,N
1651044015.7,286047001.6,N
1651044035.6,286047001.2,N
1651044055.4,286046998.5,N
1651044075.2,286047000.1,N
1651044095.1,286047000.7,N
1651044096.0,286047000.7,N
1651044115.8,286046998.8,N
1651044135.7,286046997.5,N
1651044155.5,286046997.1,N
1651044175.3,286046998.7,N
1651044195.2,286047000.6,N
1651044215.9,286047001.2,N
1651044235.7,286046998.6,N
1651044255.6,286046996.8,N
1651044275.4,286046996.8,N
1651044295.3,286046993.5,Y
1651044315.1,286046992.7,P
1651044316.0,286046992.7,N
1651044335.8,286046988.5,P
1651044355.7,286046987.0,Y
1651044375.5,286046991.7,P
1651044395.3,286046992.6,P
1651044415.2,286046990.1,P
1651044435.0,286046990.4,Y
1651044435.9,286046990.4,P
1651044455.8,286047000.7,N
1651044475.6,286046998.7,N
1651044495.4,286046999.6,N
1651044515.3,286046996.6,N
1651044535.1,286047002.8,N
1651044555.8,286047000.2,N
1651044575.7,286047001.3,N
1651044595.5,286047001.7,N
1651044615.4,286047001.5,N
1651044635.2,286047002.6,N
1651044655.0,286047003.6,N
1651044655.9,286047003.6,N
1651044675.8,286047002.1,N
1651044695.6,286047000.9,N
1651044715.4,286047000.4,N
1651044735.3,286047000.1,N
1651044755.1,286047000.9,N
1651044775.9,286046999.6,N
1651044795.7,286046996.5,N
1651044815.5,286047000.8,N
1651044835.4,286046998.2,N
1651044855.2,286047002.8,N
1651044875.0,286047002.3,N
1651044875.9,286047002.3,N
1651044895.8,286047000.6,N
1651044915.6,286047000.9,N
1651044935.5,286046998.1,N
1651044955.3,286047000.0,N
1651044975.1,286046997.3,N
1651044995.9,286046996.1,N
1651045015.7,286046994.9,N
1651045035.5,286046998.7,N
1651045055.4,286047001.4,N
1651045075.2,286047009.0,Y
1651045095.1,286047006.9,P
1651045096.0,286047006.9,N
1651045115.8,286047006.9,N
1651045135.6,286047008.8,Y
1651045155.5,286047003.8,P
1651045175.3,286047003.2,P
1651045195.2,286047003.2,P
1651045215.9,286047005.2,Y
1651045235.7,286047000.1,P
1651045255.6,286047001.9,N
1651045275.4,286047002.5,N
1651045295.3,286047005.7,Y
1651045315.1,286047001.7,P
1651045316.0,286047001.7,P
1651045335.8,286047004.3,P
1651045355.7,286047003.7,Y
1651045375.5,286047002.4,P
1651045395.3,286047002.5,P
1651045415.2,286047002.2,P
1651045435.0,286047001.7,Y
1651045435.9,286047001.7,P
1651045455.8,286046998.9,P
1651045475.6,286046997.1,N
1651045495.4,286046996.8,N
1651045515.3,286046998.0,N
1651045535.1,286046997.9,N
1651045555.9,286046998.0,N
1651045575.7,286046995.5,N
1651045595.5,286046995.9,N
1651045615.4,286046993.3,Y
1651045635.2,286046996.6,P
1651045655.0,286046999.5,N
1651045655.9,286046999.5,N
1651045675.8,286046995.3,Y
1651045695.6,286046996.9,P
1651045715.5,286046997.7,N
1651045735.3,286046997.4,P
1651045755.1,286046997.8,Y
1651045775.9,286047000.6,P
1651045795.7,286047000.7,N
1651045815.5,286047000.8,N
1651045835.4,286047001.2,N
1651045855.2,286047000.0,N
1651045875.1,286047002.7,N
1651045876.0,286047002.7,N
1651045895.8,286047001.8,N
1651045915.6,286047004.0,N
1651045935.5,286047004.4,N
1651045955.3,286047002.4,N
1651045975.2,286047000.2,N
1651045995.9,286047002.6,N
1651046015.7,286047002.8,N
1651046035.6,286047000.2,N
1651046055.4,286047000.5,N
1651046075.2,286047002.4,N
1651046095.1,286047002.0,N
1651046096.0,286047002.0,N
1651046115.8,286047001.3,N
1651046135.7,286047004.2,N
1651046155.5,286047002.5,N
1651046175.3,286047000.4,N
1651046195.2,286047001.2,N
1651046215.0,286046999.1,N
1651046215.9,286046999.1,N
1651046235.7,286047000.5,N
1651046255.6,286047001.0,N
1651046275.4,286047001.0,N
1651046295.3,286046998.6,N
1651046315.1,286046998.1,N
1651046316.0,286046998.1,N
1651046335.8,286047011.9,Y
1651046355.7,286046997.8,P
1651046375.5,286046996.9,N
1651046395.3,286046999.3,N
